Retour au catalogue

NOAA 16 DEB

ActifSSO
NORAD 41089·DEBRIS·🇺🇸 United States

Lancé Sep 21, 2000 depuis Vandenberg Space Force Base

Loading…

Prochains Passages (prochaines 24 heures)

TLE

FraisSource: Space-Track

Époque: Sep 12, 2026, 10:47 UTC

1 41089U 00055AY  26255.44990693  .00002865  00000-0  10201-2 0  9993
2 41089  98.6854 338.8556 0006479 216.1066 143.9682 14.35055173558139

Suivez NOAA 16 DEB en temps réel avec AllMySat

Download on the App Store